Regional Weather Roundup
Issued by NWS

Home | Current Version | Previous Version | Graphics & Text | Print | Product List | Glossary Off
Versions: 1 2 3 4 5 6 7 8 9 10 11 12 13 14 15 16 17 18 19 20 21 22 23 24 25 26 27 28 29 30 31 32 33 34 35 36 37 38 39 40 41 42 43 44 45 46 47 48 49 50

000
ASUS43 KMKX 290411
RWRWI

WISCONSIN REGIONAL WEATHER ROUNDUP
NATIONAL WEATHER SERVICE MILWAUKEE/SULLIVAN WI
1100 PM CDT TUE JUL 28 2015

NOTE: "FAIR" INDICATES FEW OR NO CLOUDS BELOW 12,000 FEET WITH NO
SIGNIFICANT WEATHER AND/OR OBSTRUCTIONS TO VISIBILITY.

WIZ001-002-006>008-014>016-023>028-290500-
NORTHWEST WISCONSIN

CITY           SKY/WX    TMP DP  RH WIND       PRES   REMARKS
SUPERIOR ARPT  CLEAR     73  65  76 SW6G16    29.79R
ASHLAND        CLOUDY    78  72  81 S7        29.78F HX  80
HAYWARD        MOCLDY    77  66  68 SW12G17   29.85R
SIREN          CLEAR     68  61  79 SW6       29.89R
CUMBERLAND     PTCLDY    72  61  68 W8        29.91R
RICE LAKE      MOCLDY    76  63  64 W16G22    29.91R
CHETEK         CLOUDY    75  73  92 MISG      29.89R
LADYSMITH      CLOUDY    77  73  87 SW10      29.89R
EAU CLAIRE     CLOUDY    77  72  84 SW9       29.88R
MENOMONIE      CLOUDY    78  72  83 SW10      29.89R HX  80
NEW RICHMOND   CLEAR     70  59  67 W7        29.92R
OSCEOLA        CLEAR     70  61  72 W6        29.94R
$$

WIZ003>005-009-010-017-018-290500-
NORTH CENTRAL WISCONSIN

CITY           SKY/WX    TMP DP  RH WIND       PRES   REMARKS
MANITOWISH WTR CLOUDY    74  71  89 S8        29.87S
ARBOR VITAE    MOCLDY    77  72  84 S9        29.88S
WOODRUFF       MOCLDY    77  72  84 S9        29.88S
RHINELANDER    MOCLDY    73  68  84 S5        29.91R
EAGLE RIVER    PTCLDY    72  65  80 S3        29.89R
LAND O LAKES   PTCLDY    73  67  80 S6        29.90R
PHILLIPS       CLOUDY    75  71  88 S9        29.87R
TOMAHAWK       MOCLDY    73  69  88 CALM      29.90S
MEDFORD        CLOUDY    74  71  89 S10       29.91R
MERRILL        NOT AVBL
$$

WIZ029-030-035-036-043>047-290500-
CENTRAL WISCONSIN

CITY           SKY/WX    TMP DP  RH WIND       PRES   REMARKS
WAUSAU         MOCLDY    76  70  82 SW7       29.89R
MOSINEE        CLOUDY    73  70  88 S8        29.92R
MARSHFIELD     CLOUDY    75  69  81 S7        29.91R
STEVENS POINT  CLOUDY    73  69  87 SW8       29.91S
WAUPACA        MOCLDY    75  73  93 CALM      29.91R
WAUTOMA        CLOUDY    76  73  90 SW3       29.93R
WISC RAPIDS    CLOUDY    76  70  82 S7        29.92R
CAMP DOUGLAS   NOT AVBL
$$

WIZ011>013-019>022-031-037>040-048>050-290500-
NORTHEAST WISCONSIN

CITY           SKY/WX    TMP DP  RH WIND       PRES   REMARKS
ANTIGO         MOCLDY    70  68  95 S6        29.92S
SHAWANO        MOCLDY    75  67  75 S3        29.90R
OCONTO         PTCLDY    74  69  83 S5        29.89S
STURGEON BAY   PTCLDY    72  63  73 S9        29.92F
GREEN BAY      PTCLDY    74  68  81 S6        29.90S
MANITOWOC      PTCLDY    72  67  84 MISG      29.92S
APPLETON       MOCLDY    73  70  88 VRB5      29.91S
CLINTONVILLE   MOCLDY    72  64  78 S5        29.89S
OSHKOSH        MOCLDY    73  69  87 SW3       29.91R
$$

WIZ032>034-041-042-053>061-290500-
SOUTHWEST WISCONSIN

CITY           SKY/WX    TMP DP  RH WIND       PRES   REMARKS
LA CROSSE      CLOUDY    77  70  79 S7        29.91R
SPARTA         CLOUDY    75  69  84 CALM      29.92R
VIROQUA        CLOUDY    73  73 100 S7        29.95R
BOSCOBEL       CLOUDY    75  71  87 CALM      29.94R
PRAIRIE DU CHI CLOUDY    74  70  87 CALM      29.94R
PLATTEVILLE    CLOUDY    75  74  97 CALM      29.97R
$$

WIZ056-057-062-063-064-067-068-290500-
SOUTH CENTRAL WISCONSIN

CITY           SKY/WX    TMP DP  RH WIND       PRES   REMARKS
REEDSBURG      CLOUDY    74  71  91 S3        29.94R
BARABOO/DELLS  CLOUDY    75  69  80 SW6       29.95R
LONE ROCK      CLOUDY    73  70  90 CALM      29.95R
MINERAL POINT  CLOUDY    77  73  88 S3        29.97R
MADISON        CLOUDY    79  72  79 SW6       29.95R HX  82
MIDDLETON      CLOUDY    78  74  88 SW3       29.96R
WATERTOWN      PTCLDY    74  74 100 SW3       29.94R
MONROE         CLOUDY    75  72  88 SW8       29.97R
JANESVILLE     MOCLDY    75  73  94 CALM      29.95R
$$

WIZ051-052-058>065-066-070>072-290500-
SOUTHEAST WISCONSIN

CITY           SKY/WX    TMP DP  RH WIND       PRES   REMARKS
MILWAUKEE      MOCLDY    75  67  76 S5        29.93S
WAUKESHA       PTCLDY    73  68  83 CALM      29.95R
MILWAUKEE/TIMM PTCLDY    77  64  65 S5        29.94R
RACINE         PTCLDY    77  69  76 SE5       29.95S
BURLINGTON     PTCLDY    69  68  96 CALM      29.95R FOG
KENOSHA        PTCLDY    73  69  87 CALM      29.94S
FOND DU LAC    MOCLDY    74  71  91 S6        29.92R
SHEBOYGAN      PTCLDY    70  66  87 SW3       29.92F
WEST BEND      PTCLDY    72  66  83 CALM      29.94R
JUNEAU         MOCLDY    73  71  91 SW6       29.95R
$$

LSZ147-162-290500-
LAKE SUPERIOR

STATION/POSITION TIME  TEMP    WIND        PRES    WAVE
                       AIR SEA DIR/SP/G            HT/PER
                 (UTC) (F)     (DEG/KT/KT) (MB)    (FT/S)
W MID LAKE BUOY  0350   68 62  160/ 12/ 12 1006.8F   1
DEVILS ISLAND    0400   78     210/  9/ 12 1007.0F
PORT WING        0340   80     220/ 11/ 14 1008.1S
SAXON HARBOR     0300   80                 1008.1F
$$

LMZ867-665-643>646-290500-
LAKE MICHIGAN

STATION/POSITION TIME  TEMP    WIND        PRES    WAVE
                       AIR SEA DIR/SP/G            HT/PER
                 (UTC) (F)     (DEG/KT/KT) (MB)    (FT/S)
CHAMBERS ISLAND  0300   77     170/  4/ 11 1012.2F
N MID LAKE BUOY  0350   72 71  170/ 10/ 12 1012.4F   1
NORTHPORT PIER   0300   74     170/  5/ 10 1012.5F
SISTER BAY       0214   74     170/ 10/ 14   N/A
ALGOMA LAKESHORE 0212          210/  9/ 10   N/A
KEWAUNEE LAKESHO 0300   64     180/  5/  6 1012.5F
SHEBOYGAN LAKESH 0400   72     190/  9/  9 1013.3F
PORT WASHINGTON  0340   71      CALM  /  2 1013.5F
ATWATER BUOY     0400   71     180/  6/  6 1014.8S
MILWAUKEE LAKESH 0300   73     150/  8/  9   N/A
KENOSHA   LAKESH 0400   75     180/  5/  7 1013.2R
$$

TC  - TEMPERATURE IN CELSIUS
VSB - VISIBILITY IN STATUTE MILES
WCI - WIND CHILL INDEX
HX  - HEAT INDEX



USA.gov is the U.S. government's official web portal to all federal, state and local government web resources and services.